Weather in Tartu

Estonia     58˚22′40″N   26˚43′44″E
temp.,
°C
wind,
m/s
gust,
m/s
humid.,
%
clouds,
%
prec.,
mm/h
press.,
hPa
HPBL,
m
29 november, sun
sun2923:00e368092 0.0 1027645
02:00ene379293 0.1 1028462
05:00e368996 0.1 1027510
08:00−1˚ene369098 0.2 1028487
11:00ene3685100 0.0 1028612
14:00−1˚ne3683100 0.1 1027633
17:00ene4982100 0.0 1025699
20:00−2˚ene489398 0.2 1024483
30 november, mon
mon3023:00−1˚ne379474 0.1 1023393
02:00ne259884 0.6 1022172
05:00+1˚ese1399100 0.3 1020131
08:00sse259599 0.6 1021267
11:00−1˚sse249241 0.0 1020225
14:00s258571 0.1 1020615
17:00−1˚s3694100 0.2 1019400
20:00−1˚s2793100 0.2 1019502
1 december, tue
tue123:00−2˚ssw398799 0.0 1019469
02:00−1˚ssw398299 0.0 1019473
05:00−1˚ssw498790 0.0 1019615
08:00+1˚ssw388395 0.0 1021722
11:00ssw498697 0.0 1022530
14:00+1˚ssw4108798 0.0 1023561
17:00+1˚ssw41089100 0.0 1024574
20:00ssw41089100 0.0 1026526
2 december, wed
wed223:00sw4990100 0.1 1027519
02:00ssw4989100 0.1 1029465
05:00sw378897 0.0 1029486
08:00−1˚sw358796 0.0 1029499
11:00−1˚ssw358498 0.0 1031498
14:00−1˚s248674 0.0 1030318
17:00−3˚sse24948 0.0 1030141
20:00−2˚sse258638 0.0 1030280
3 december, thu
thu323:00−2˚sse368495 0.0 1029330
02:00−3˚se268697 0.0 1028283
05:00−3˚se3687100 0.0 1027280
08:00−3˚se369397 0.0 1026273
11:00−2˚se3690100 0.0 1026311
14:00−2˚se368898 0.0 1025466
17:00−2˚sse3578100 0.0 1024730
20:00−2˚sse3678100 0.1 1024745